Location: Krakow
(50.0830°N, 19.9170°E)
Time: 18:55:53
(UTC+01:00)

SR - Pass Details

Date: 14 February 2023
Orbit: 582 x 867 km, 66.7° (Epoch: 20 March)

Event Time Altitude Azimuth Distance (km) Brightness Sun altitude
Rises 18:23:23 0° 326° (NNW) 2,879 ? -14.5°
Reaches altitude 10° 18:26:01 10° 341° (NNW) 1,944 ? -14.9°
Maximum altitude 18:29:35 24° 36° (NE) 1,224 ? -15.5°
Enters shadow 18:30:24 23° 54° (NE) 1,267 ? -15.6°
Drops below altitude 10° 18:33:05 10° 92° (E) 1,904 - -16.0°
Sets 18:35:39 0° 106° (ESE) 2,806 - -16.5°
